This is the latest recevied weather packets stored in our database for station/object W8LMG. If no packets are shown the sender has not sent any weather packets the latest 10 day(s).
| Time | Temp. | Humidity | Pressure | Rain* | Wind** | Luminosity | Snow |
|---|---|---|---|---|---|---|---|
| 1778061024 | 11.67° C | 98% | 1010.6 hPa | 1.27 mm | - | 0 W/m² | - |
| 1778060722 | 11.67° C | 98% | 1010.5 hPa | 3.05 mm | - | 0 W/m² | - |
| 1778060420 | 11.67° C | 98% | 1010.9 hPa | 6.6 mm | - | 0 W/m² | - |
| 1778060118 | 11.67° C | 97% | 1011 hPa | 6.1 mm | - | 0 W/m² | - |
| 1778059815 | 11.67° C | 97% | 1010.9 hPa | 4.83 mm | - | 0 W/m² | - |
| 1778059513 | 12.22° C | 96% | 1011.3 hPa | 3.05 mm | - | 0 W/m² | - |
| 1778059209 | 12.22° C | 96% | 1011.2 hPa | 3.05 mm | - | 0 W/m² | - |
| 1778058908 | 12.22° C | 94% | 1011.2 hPa | 3.05 mm | - | 0 W/m² | - |
| 1778058605 | 12.22° C | 92% | 1011 hPa | 1.27 mm | - | 0 W/m² | - |
| 1778058303 | 12.22° C | 92% | 1011 hPa | 0 mm | - | 0 W/m² | - |
| 1778057998 | 12.78° C | 90% | 1010.8 hPa | 0 mm | - | 0 W/m² | - |
| 1778057695 | 12.78° C | 90% | 1010.8 hPa | 0 mm | - | 0 W/m² | - |
| 1778057392 | 12.78° C | 90% | 1010.8 hPa | 0 mm | - | 0 W/m² | - |
| 1778057089 | 12.78° C | 88% | 1010.8 hPa | 0 mm | - | 0 W/m² | - |
| 1778056785 | 12.78° C | 88% | 1010.7 hPa | 0 mm | - | 0 W/m² | - |
| 1778056483 | 12.78° C | 88% | 1010.6 hPa | 0 mm | - | 0 W/m² | - |
| 1778056180 | 12.78° C | 87% | 1010.8 hPa | 0 mm | - | 0 W/m² | - |
| 1778055877 | 12.78° C | 87% | 1010.6 hPa | 0 mm | - | 0 W/m² | - |
| 1778055572 | 12.78° C | 86% | 1010.6 hPa | 0 mm | - | 0 W/m² | - |
| 1778055271 | 12.78° C | 86% | 1010.7 hPa | 0 mm | - | 0 W/m² | - |
| 1778054968 | 12.78° C | 86% | 1010.7 hPa | 0 mm | - | 0 W/m² | - |
| 1778054664 | 12.78° C | 86% | 1010.6 hPa | 0 mm | - | 0 W/m² | - |
| 1778054362 | 12.78° C | 85% | 1010.8 hPa | 0 mm | - | 0 W/m² | - |
| 1778054060 | 12.78° C | 84% | 1010.9 hPa | 0 mm | - | 0 W/m² | - |
| 1778053756 | 12.78° C | 84% | 1010.7 hPa | 0 mm | - | 0 W/m² | - |
* Rain latest hour (hover to see other rain measurements)
** Current wind speed in m/s (hover to see current wind gust speed)